TimePST,TemperatureF,Dew PointF,Humidity,Sea Level PressureIn,VisibilityMPH,Wind Direction,Wind SpeedMPH,Gust SpeedMPH,PrecipitationIn,Events,Conditions,WindDirDegrees,DateUTC
12:50 AM,39.2,39.2,100,30.22,1.8,Calm,Calm,-,N/A,,Partly Cloudy,0,2013-02-04 08:50:00
12:51 AM,39.0,39.0,100,30.23,1.5,Calm,Calm,-,N/A,,Partly Cloudy,0,2013-02-04 08:51:00
1:01 AM,39.2,39.2,100,30.23,1.0,Calm,Calm,-,N/A,,Partly Cloudy,0,2013-02-04 09:01:00
1:15 AM,39.2,39.2,100,30.23,2.0,Calm,Calm,-,N/A,,Clear,0,2013-02-04 09:15:00
1:22 AM,39.2,39.2,100,30.23,7.0,Calm,Calm,-,N/A,,Clear,0,2013-02-04 09:22:00
2:56 AM,39.9,39.9,100,30.24,6.0,Calm,Calm,-,N/A,,Overcast,0,2013-02-04 10:56:00
3:30 AM,39.2,39.2,100,30.21,1.8,Calm,Calm,-,N/A,,Scattered Clouds,0,2013-02-04 11:30:00
3:35 AM,39.2,39.2,100,30.20,1.2,Calm,Calm,-,N/A,,Partly Cloudy,0,2013-02-04 11:35:00
3:44 AM,39.2,39.2,100,30.20,0.8,Calm,Calm,-,N/A,,Mist,0,2013-02-04 11:44:00
3:49 AM,37.4,37.4,100,30.20,0.2,Calm,Calm,-,N/A,Fog,Fog,0,2013-02-04 11:49:00
3:56 AM,37.9,37.0,97,30.21,0.2,Calm,Calm,-,N/A,Fog,Fog,0,2013-02-04 11:56:00
4:36 AM,37.4,37.4,100,30.20,0.5,Calm,Calm,-,N/A,Fog,Fog,0,2013-02-04 12:36:00
4:41 AM,37.4,37.4,100,30.20,1.5,Calm,Calm,-,N/A,,Overcast,0,2013-02-04 12:41:00
4:43 AM,35.6,35.6,100,30.20,2.5,Calm,Calm,-,N/A,,Overcast,0,2013-02-04 12:43:00
4:56 AM,37.0,37.0,100,30.21,5.0,Calm,Calm,-,N/A,,Overcast,0,2013-02-04 12:56:00
5:15 AM,35.6,35.6,100,30.19,2.5,Calm,Calm,-,N/A,,Overcast,0,2013-02-04 13:15:00
5:26 AM,35.6,35.6,100,30.19,1.2,Calm,Calm,-,N/A,,Overcast,0,2013-02-04 13:26:00
5:33 AM,37.4,37.4,100,30.19,1.8,Calm,Calm,-,N/A,,Overcast,0,2013-02-04 13:33:00
5:37 AM,37.4,37.4,100,30.19,0.8,Calm,Calm,-,N/A,,Overcast,0,2013-02-04 13:37:00
5:49 AM,37.4,37.4,100,30.18,0.2,Calm,Calm,-,N/A,Fog,Fog,0,2013-02-04 13:49:00
5:56 AM,36.0,36.0,100,30.18,0.2,Calm,Calm,-,N/A,Fog,Fog,0,2013-02-04 13:56:00
6:25 AM,37.4,37.4,100,30.18,0.8,Calm,Calm,-,N/A,,Overcast,0,2013-02-04 14:25:00
6:56 AM,37.0,37.0,100,30.18,0.5,Calm,Calm,-,N/A,Fog,Fog,0,2013-02-04 14:56:00
7:07 AM,37.4,37.4,100,30.17,0.2,Calm,Calm,-,N/A,Fog,Fog,0,2013-02-04 15:07:00
7:42 AM,37.4,37.4,100,30.17,0.5,Calm,Calm,-,N/A,Fog,Fog,0,2013-02-04 15:42:00
7:56 AM,37.0,37.0,100,30.17,0.5,Calm,Calm,-,N/A,Fog,Fog,0,2013-02-04 15:56:00
8:11 AM,37.4,37.4,100,30.17,6.0,Calm,Calm,-,N/A,Fog,Patches of Fog,0,2013-02-04 16:11:00
8:18 AM,37.4,37.4,100,30.16,6.0,Calm,Calm,-,N/A,Fog,Patches of Fog,0,2013-02-04 16:18:00
8:42 AM,39.2,39.2,100,30.16,5.0,Calm,Calm,-,N/A,Fog,Patches of Fog,0,2013-02-04 16:42:00
8:56 AM,39.9,39.9,100,30.16,6.0,Calm,Calm,-,N/A,Fog,Patches of Fog,0,2013-02-04 16:56:00
9:56 AM,43.0,42.1,97,30.15,6.0,Calm,Calm,-,N/A,Fog,Patches of Fog,0,2013-02-04 17:56:00
10:56 AM,46.9,42.1,83,30.14,10.0,Calm,Calm,-,N/A,Fog,Patches of Fog,0,2013-02-04 18:56:00
11:04 AM,46.4,41.0,81,30.14,10.0,Calm,Calm,-,N/A,Fog,Patches of Fog,0,2013-02-04 19:04:00
11:56 AM,46.9,42.1,83,30.12,10.0,NE,3.5,-,N/A,Fog,Patches of Fog,50,2013-02-04 19:56:00
12:03 PM,48.2,42.8,82,30.11,10.0,Calm,Calm,-,N/A,,Mostly Cloudy,0,2013-02-04 20:03:00
12:56 PM,50.0,42.1,74,30.09,10.0,NW,3.5,-,N/A,,Mostly Cloudy,320,2013-02-04 20:56:00
1:03 PM,48.2,42.8,82,30.08,10.0,West,3.5,-,N/A,,Clear,270,2013-02-04 21:03:00
1:22 PM,50.0,42.8,76,30.07,10.0,Variable,3.5,-,N/A,,Mostly Cloudy,0,2013-02-04 21:22:00
1:56 PM,50.0,42.1,74,30.06,10.0,Calm,Calm,-,N/A,,Scattered Clouds,0,2013-02-04 21:56:00
2:56 PM,51.1,41.0,68,30.04,10.0,Calm,Calm,-,N/A,,Partly Cloudy,0,2013-02-04 22:56:00
3:56 PM,50.0,42.1,74,30.04,10.0,Calm,Calm,-,N/A,,Partly Cloudy,0,2013-02-04 23:56:00
5:56 PM,46.0,42.1,86,30.01,7.0,ESE,3.5,-,N/A,,Clear,110,2013-02-05 01:56:00
6:56 PM,45.0,42.1,90,29.98,10.0,South,5.8,-,N/A,,Clear,170,2013-02-05 02:56:00
7:56 PM,46.0,43.0,89,29.96,10.0,East,3.5,-,N/A,,Clear,100,2013-02-05 03:56:00
8:56 PM,45.0,43.0,93,29.96,10.0,Calm,Calm,-,N/A,,Clear,0,2013-02-05 04:56:00
9:56 PM,46.0,42.1,86,29.97,10.0,SSW,6.9,-,N/A,,Clear,210,2013-02-05 05:56:00
10:56 PM,46.0,39.9,79,29.97,10.0,SSW,8.1,-,N/A,,Clear,200,2013-02-05 06:56:00
11:33 PM,44.6,39.2,81,29.98,10.0,South,8.1,-,N/A,,Mostly Cloudy,170,2013-02-05 07:33:00
11:54 PM,44.6,41.0,87,29.98,10.0,South,8.1,-,N/A,,Overcast,170,2013-02-05 07:54:00
11:56 PM,45.0,41.0,86,29.99,10.0,South,8.1,-,N/A,,Overcast,170,2013-02-05 07:56:00